Regional Weather Roundup
Issued by NWS

Home | Current Version | Previous Version | Graphics & Text | Print | Product List | Glossary On
Versions: 1 2 3 4 5 6 7 8 9 10 11 12 13 14 15 16 17 18 19 20 21 22 23 24 25 26 27 28 29 30 31 32 33 34 35 36 37 38 39 40 41 42 43 44 45 46 47 48 49 50
000
ASUS43 KBIS 271510
RWRND

NORTH DAKOTA REGIONAL WEATHER ROUNDUP
NATIONAL WEATHER SERVICE BISMARCK ND
1000 AM CDT WED AUG 27 2014

NOTE: "FAIR" INDICATES FEW OR NO CLOUDS BELOW 12,000 FEET WITH NO
SIGNIFICANT WEATHER AND/OR OBSTRUCTIONS TO VISIBILITY.


NDZ001>003-009>011-017-271600-
NORTHWEST NORTH DAKOTA

CITY           SKY/WX    TMP DP  RH WIND       PRES   REMARKS
WILLISTON      SUNNY     62  55  77 SE6       30.10F
MINOT          SUNNY     63  53  70 S9        30.13S
MINOT AFB      SUNNY     62  59  88 SW6       30.12F
$$

NDZ018>021-031>035-040>046-271600-
SOUTHWEST NORTH DAKOTA

CITY           SKY/WX    TMP DP  RH WIND       PRES   REMARKS
BISMARCK       PTSUNNY   55  55 100 E3        30.17F
DICKINSON      SUNNY     61  56  83 S8        30.14S
GARRISON         N/A     59  57  93 S6        30.15S
HETTINGER ARPT SUNNY     59  55  87 S7        30.17S
$$

NDZ004>008-012>016-024-026-027-054-271600-
NORTHEAST NORTH DAKOTA

CITY           SKY/WX    TMP DP  RH WIND       PRES   REMARKS
GRAND FORKS    SUNNY     61  55  81 S5        30.18S
GRND FRKS AFB  SUNNY     62  58  86 VRB3      30.18S
DEVILS LAKE    SUNNY     61  50  67 S5        30.16S
$$

NDZ022-023-025-028>030-036>039-047>053-271600-
SOUTHEAST NORTH DAKOTA

CITY           SKY/WX    TMP DP  RH WIND       PRES   REMARKS
FARGO          SUNNY     64  58  80 CALM      30.19S
JAMESTOWN      MOSUNNY   58  56  93 E3        30.18S
$$




USA.gov is the U.S. government's official web portal to all federal, state and local government web resources and services.